Showing default

TELKOM 1, 25880

Orbit data source: Space-Track

TELKOM 1, 25880 is a payload satellite owned by Telkom (ID) in GEO that was launched on Thu, 12 Aug 1999 UTC via an ARIANE 42P launch vehicle from the French Guiana (FRGUI). Payloads include a variety of satellites, spacecraft, and rockets equipped with specific instruments for various scientific and technological missions. These include communications satellites like Starlink; space stations such as the ISS; scientific satellites like the Hubble; Earth observation satellites from companies like Planet Labs, Umbra, and HawkEye 360; GPS; miniature CubeSats for education and research; and military/defense satellites.

Not visible in the next 10 days
TELKOM 1 details
Identifier
25880, 1999-042A
Orbit
GEO
Last TLE update15 hours ago
Origin
Flag of IDTelkom (ID / INDO)
ManufacturerLMCSS
MissionNon-operational Commercial Communications
Bus & MotorA2100, LEROS 1C
Mass2,763 kg wet, ~1,500 kg dry
Launch date (UTC)
1999-08-12 (25 years ago)
Launch vehicle
ARIANE 42P
Launch site
French Guiana (FRGUI)
Object type
Payload
Rocket body
Debris
Shape & HBRBox + 1 Pan, 22.5 m
Radar Cross Section38.975 m², Large (>1 m²)

Expand to show TLE details & history

TLE from 15 hours ago
0 TELKOM 1
1 25880U 99042A   24360.82728104  .00000045  00000-0  00000+0 0  9992
2 25880   6.3417  72.4824 0016712 236.9982 145.7757  1.00282521 92951
Epoch: 2024-12-25T19:51Z
Definitive object data (Epoch: 2024-12-25T19:51:17.081Z)
Latitude2.48398°
Longitude62.59707°
Altitude35,841.322 km
Speed3.071 km/s
True Right ascension06h 20m 56s
True Declination2° 28' 53"
Sunlit
Object was in daylight at TLE epoch
Visualization TLE readout
Latitude-5.9162°
Longitude-71.93563°
Altitude35,714.954 km
Speed3.08 km/s
Apparent Right ascension21h 27m 56s
Apparent Declination-10° 12' 36"
Sunlit
Object is in daylight
Visualization observer readout
Local Sidereal Time10:12:05
Azimuth21.275° NNE
Elevation-58.718°
Doppler factor1
Orbital elements
Apogee altitude35,855.099 km
Perigee altitude35,714.174 km
Semi-major axis42,162.774 km
Eccentricity0.0016712
Inclination6.3417°
RAAN72.4824°
Arg. of periapsis236.9982°
True anomaly145.88322°
Mean anomaly145.7757°
Eccentric anomaly145.82948°
Mean motion0.2507 °/min
BSTARUnknown
Orbital period1436 mins
Loading historical data...
25880 neighbors
Authenticating...
Loading maneuver chart data...
Loading historical data...
Loading historical data...
Loading historical data...
Loading historical data...
Loading historical data...
Loading historical data...
Loading historical data...
Other satellites on launch #42 in the year 1999 (1999-08-12 UTC)

TELKOM 1 Visibility forecast

Observer location: undefined°, undefined

TELKOM 1 is not visible in the next 10 days
Span
Click to sort rows by Start time (UTC) header in descending order
Start Az.
Max El. time (UTC)
Max El. Az.
Max El.
End time (UTC)
End Az.
|